Braunschweig, Germany

07:16 PM CEST am 27. Juni 2017 (GMT +0200)
Braunschweig

Wetter Verlauf für EDVE - Juni, 2017

Change the Weather History Date:

Montag, Juni 19, 2017

  Actual Average Record
Temperature  
mittlereTemperatur 73 °F -  
Max. Temperatur 84 °F 71 °F 91 °F (2000)
Min.Temperatur 62 °F 58 °F 49 °F (2015)
Cooling Degree Days 8    
Growing Degree Days 23 (Base 50)    
Moisture  
Taupunkt 62 °F    
Average Humidity 61    
Maximum Humidity 100    
Minimum Humidity 42    
Niederschlag  
Niederschlag 0.00 inch - - ()
Luftdruck in Meereshöhe  
Luftdruck in Meereshöhe 30.14 inch    
Wind  
Windgeschwindigkeit 4 mph ()    
Max. Windgeschwindigkeit 8 mph    
Max Gust Speed -    
Sichtweite 8.3 Meilen    
Ereignisse      
Averages and records for this station are not official NWS values.
T = Trace of Precipitation, MM = Missing Value Source: Averaged Metar Reports

Daily Weather History Graph

Daily Weather History Graph

Search for Another Location

Airport or City:

Trip Planner

Search our weather history database for the weather conditions in past years. The results will help you decide how hot, cold, wet, or windy it might be!

Date:

Astronomie

Jun. 19, 2017 Aufgang Untergang
Genaue Zeit 04:55 CEST 21:43 CEST
Bürgerliche Dämmerung 04:05 CEST 22:32 CEST
Nautische Dämmerung 02:44 CEST 23:54 CEST
Astronomische Dämmerung Sun does not set Sun does not set
Mond 02:22 CEST (6/19) 15:33 CEST (6/19)
Länge des sichtbaren Lichts 18h 27m
Tageslänge
16h 47m
Letztes Viertel, 29% of the Moon is Illuminated
Jun 19
Letztes Viertel
Jun 24
Neu
Jul 1
Erstes Viertel
Jul 9
Vollmond
Jul 16
Letztes Viertel

Hourly Weather History & Observations

Zeit (CEST) Temp. Hitzeindex Taupunkt Feuchtigkeit Druck Sichtweite Wind Dir Windgeschwindigkeit Böengeschwindigkeit Precip Ereignisse Wetterzustand
2:00 AM 62 °F - 61 °F 96% 30.24 inch 6 mi Südost 2.2 mph - -   Heiter
6:50 AM 64.4 °F - 64.4 °F 100% 30.21 inch - Ruhig Ruhig - N/A   Heiter
7:20 AM 68.0 °F - 68.0 °F 100% 30.21 inch - Ruhig Ruhig - N/A   Heiter
7:50 AM 68.0 °F - 68.0 °F 100% 30.21 inch - Wechselnd 2.3 mph - N/A   Heiter
8:20 AM 69.8 °F - 68.0 °F 94% 30.21 inch - Süd 4.6 mph - N/A   Heiter
8:50 AM 71.6 °F - 66.2 °F 83% 30.21 inch - Südost 4.6 mph - N/A   Heiter
9:20 AM 73.4 °F - 66.2 °F 78% 30.21 inch - Südost 6.9 mph - N/A   Heiter
9:50 AM 75.2 °F - 64.4 °F 69% 30.21 inch - Süd-Südost 5.8 mph - N/A   Heiter
10:20 AM 75.2 °F - 64.4 °F 69% 30.21 inch - Süd-Südost 4.6 mph - N/A   Heiter
10:50 AM 77.0 °F - 62.6 °F 61% 30.21 inch - Wechselnd 3.5 mph - N/A   Heiter
11:50 AM 78.8 °F - 59.0 °F 51% 30.18 inch 6.2 mi Ost-Südost 5.8 mph - N/A   Teils Wolkig
12:20 PM 78.8 °F - 59.0 °F 51% 30.18 inch 6.2 mi Süd-Südost 8.1 mph - N/A   Teils Wolkig
12:50 PM 78.8 °F - 60.8 °F 54% 30.18 inch - Wechselnd 5.8 mph - N/A   Heiter
1:20 PM 80.6 °F 81.5 °F 60.8 °F 51% 30.15 inch 6.2 mi Süd-Südost 8.1 mph - N/A   Teils Wolkig
1:50 PM 82.4 °F 82.5 °F 59.0 °F 45% 30.15 inch 6.2 mi Südost 6.9 mph - N/A   Teils Wolkig
2:20 PM 82.4 °F 82.0 °F 57.2 °F 42% 30.15 inch - Wechselnd 4.6 mph - N/A   Heiter
2:50 PM 82.4 °F 82.5 °F 59.0 °F 45% 30.12 inch - Süd 6.9 mph - N/A   Heiter
3:20 PM 82.4 °F 82.9 °F 60.8 °F 48% 30.12 inch - Ost-Südost 6.9 mph - N/A   Heiter
3:50 PM 84.2 °F 85.0 °F 62.6 °F 48% 30.12 inch - Süd 5.8 mph - N/A   Heiter
4:20 PM 82.4 °F 82.9 °F 60.8 °F 48% 30.09 inch - Ost-Südost 6.9 mph - N/A   Heiter
4:50 PM 84.2 °F 84.4 °F 60.8 °F 45% 30.09 inch - Süd 5.8 mph - N/A   Heiter
5:20 PM 84.2 °F 84.4 °F 60.8 °F 45% 30.09 inch - Südost 8.1 mph - N/A   Heiter
5:50 PM 84.2 °F 85.0 °F 62.6 °F 48% 30.06 inch - Ost-Südost 4.6 mph - N/A   Heiter
6:20 PM 84.2 °F 85.0 °F 62.6 °F 48% 30.06 inch - Ost-Südost 4.6 mph - N/A   Heiter
6:50 PM 84.2 °F 84.4 °F 60.8 °F 45% 30.06 inch - Süd-Südost 6.9 mph - N/A   Heiter
7:20 PM 82.4 °F 82.9 °F 60.8 °F 48% 30.06 inch - Südost 4.6 mph - N/A   Heiter
7:50 PM 84.2 °F 84.4 °F 60.8 °F 45% 30.06 inch - Ost-Südost 4.6 mph - N/A   Heiter
8:00 PM 81 °F - 64 °F 46% 30.05 inch 19 mi Nordwest 4.5 mph - -  
8:20 PM 82.4 °F 83.9 °F 64.4 °F 54% 30.06 inch - Nord-Nordwest 5.8 mph - N/A   Heiter
8:50 PM 78.8 °F - 64.4 °F 61% 30.04 inch - Nord-Nordwest 4.6 mph - N/A   Heiter